Regional Weather Roundup
Issued by NWS

Home | Current Version | Previous Version | Text Only | Print | Product List | Glossary On
Versions: 1 2 3 4 5 6 7 8 9 10 11 12 13 14 15 16 17 18 19 20 21 22 23 24 25 26 27 28 29 30 31 32 33 34 35 36 37 38 39 40 41 42 43 44 45 46 47 48 49 50
000
ASUS43 KIND 091359
RWRIN

WEATHER ROUNDUP FOR INDIANA
NATIONAL WEATHER SERVICE INDIANAPOLIS IN
900 AM EST TUE FEB 09 2016

NOTE: "FAIR" INDICATES FEW OR NO CLOUDS BELOW 12,000 FEET WITH NO
SIGNIFICANT WEATHER AND/OR OBSTRUCTIONS TO VISIBILITY.

* - STATION DOES NOT REPORT WEATHER SUCH AS PRECIPITATION OR FOG.

+ - STATION NOT QUALITY CONTROLLED BY THE NATIONAL WEATHER SERVICE.
    USE DATA WITH CAUTION...ESPECIALLY DEWPOINT AND RELATIVE
    HUMIDITY OBSERVATIONS.

INZ001>003-010>013-019-020-091500-
NORTHWEST INDIANA

CITY           SKY/WX    TMP DP  RH WIND       PRES   REMARKS
GARY /AIRPORT/ FLURRIES  21  12  68 W17       29.79R WCI   7
RENSSELAER +   FLURRIES  21  14  73 W12G17    29.78S WCI   9
VALPARAISO     LGT SNOW  21  18  86 NW15      29.75R WCI   8

$$

LMZ046-743>745-091500-
SOUTHERN LAKE MICHIGAN

STATION/POSITION TIME  TEMP    WIND        PRES    WAVE
                       AIR SEA DIR/SP/G            HT
                 (UTC) (F)     (DEG/KT/KT) (MB)    (FT)
BURNS HARBOR     1320   23     310/ 20     1008.1R
MICHIGAN CITY    1300   26     280/ 24/ 26   N/A

$$

INZ004-005-014>016-021>024-091500-
NORTH CENTRAL INDIANA

CITY           SKY/WX    TMP DP  RH WIND       PRES   REMARKS
ELKHART          N/A     28  23  80 NW13      29.69  WCI  18
GOSHEN         CLOUDY    28  24  85 NW14      29.67R WCI  17
SOUTH BEND     FLURRIES  26  22  84 NW13G24   29.71R WCI  15

$$

INZ006>009-017-018-025>027-091500-
NORTHEAST INDIANA

CITY           SKY/WX    TMP DP  RH WIND       PRES   REMARKS
ANGOLA *+      CLOUDY    28  27  93 NW13      29.62R WCI  18
FORT WAYNE     FLURRIES  26  19  74 W16       29.68R WCI  14

$$

INZ028-029-035-036-043>045-051>053-091500-
WEST CENTRAL INDIANA

CITY           SKY/WX    TMP DP  RH WIND       PRES   REMARKS
GREENCASTLE +  CLOUDY    19  10  68 W8        29.81R WCI   9
LAFAYETTE      FLURRIES  20  15  81 W14       29.79S WCI   7
TERRE HAUTE    LGT SNOW  19  14  81 W8        29.84R WCI   9

$$

INZ030>032-037>040-046>048-054>057-064-065-091500-
CENTRAL INDIANA

CITY           SKY/WX    TMP DP  RH WIND       PRES   REMARKS
ANDERSON       LGT SNOW  19  18  93 W12G17    29.75  VSB 1   WCI   7
GREENWOOD *+   CLOUDY    21  18  86 W14G20    29.78R WCI   8
INDIANAPOLIS   LGT SNOW  20  15  81 W14       29.77R WCI   7
-EAGLE CREEK   LGT SNOW  20  15  81 W13       29.77R WCI   7
KOKOMO *+      CLOUDY    21  16  79 W18       29.74R WCI   6
MT COMFORT *+  CLOUDY    21  18  86 W12       29.77R WCI   9
SHELBYVILLE    LGT SNOW  22  16  78 W15       29.77R WCI   9

$$

INZ033-034-041-042-049-050-058-059-091500-
EAST CENTRAL INDIANA

CITY           SKY/WX    TMP DP  RH WIND       PRES   REMARKS
MUNCIE         LGT SNOW  22  17  81 W14       29.72R VSB 1   WCI   9

$$

INZ060-061-067>069-081>083-085>088-091500-
SOUTHWEST INDIANA

CITY           SKY/WX    TMP DP  RH WIND       PRES   REMARKS
EVANSVILLE     FLURRIES  24  13  62 NW8       29.90R WCI  15
HUNTINGBURG *+ CLOUDY    21  14  73 W13       29.88R WCI   9

$$

INZ062-063-066-070>080-084-089>092-091500-
SOUTH CENTRAL AND SOUTHEAST INDIANA

CITY           SKY/WX    TMP DP  RH WIND       PRES   REMARKS
BLOOMINGTON    LGT SNOW  20  15  81 W10       29.81R WCI   9
MADISON *+     CLOUDY    23  18  80 SW9       29.82R WCI  13
SEYMOUR +      LGT SNOW  23  18  80 W14       29.82R WCI  11

$$




USA.gov is the U.S. government's official web portal to all federal, state and local government web resources and services.